N425KT KSBA-KTVL

Flight info

Callsign N425KT
Flight time 2h 46m
Altitude 12000
Route FLOUT5 GVO AVE SPOOK
Aircraft C208/L-VGD/C

Departure

Time 2026-04-23 22:40
Airport Santa Barbara Municipal Airport (KSBA)

Arrival

Time 2026-04-24 01:26
Airport Lake Tahoe Airport (KTVL)
Time Latitude Longitude Altitude Speed Heading
2026-04-23 22:07 34.42331 -119.83572 17 ft 0 kts 255°
2026-04-23 22:31 34.42329 -119.83578 17 ft 3 kts 252°
2026-04-23 22:32 34.42308 -119.83619 17 ft 8 kts 235°
2026-04-23 22:32 34.42272 -119.83698 17 ft 11 kts 269°
2026-04-23 22:32 34.42346 -119.83739 17 ft 15 kts 359°
2026-04-23 22:32 34.42466 -119.83773 17 ft 21 kts 346°
2026-04-23 22:33 34.42615 -119.83819 17 ft 24 kts 345°
2026-04-23 22:33 34.42673 -119.83734 17 ft 19 kts 91°
2026-04-23 22:33 34.42675 -119.83554 17 ft 24 kts 86°
2026-04-23 22:33 34.42702 -119.83459 17 ft 1 kts 356°
2026-04-23 22:38 34.42714 -119.83460 17 ft 5 kts 358°
2026-04-23 22:38 34.42774 -119.83470 17 ft 12 kts 345°
2026-04-23 22:38 34.42791 -119.83536 16 ft 11 kts 268°
2026-04-23 22:39 34.42786 -119.83762 18 ft 46 kts 268°
2026-04-23 22:39 34.42774 -119.84299 21 ft 79 kts 270°
2026-04-23 22:39 34.42744 -119.84995 195 ft 81 kts 261°
2026-04-23 22:39 34.42699 -119.85632 422 ft 78 kts 260°
2026-04-23 22:40 34.42450 -119.86249 490 ft 88 kts 218°
2026-04-23 22:40 34.41847 -119.86353 670 ft 100 kts 160°
2026-04-23 22:40 34.40698 -119.85682 1202 ft 90 kts 159°
2026-04-23 22:41 34.40158 -119.85295 1352 ft 96 kts 162°
2026-04-23 22:41 34.39544 -119.85416 1536 ft 95 kts 208°
2026-04-23 22:41 34.38934 -119.85755 1706 ft 104 kts 206°
2026-04-23 22:41 34.38236 -119.86232 1724 ft 124 kts 211°
2026-04-23 22:42 34.37467 -119.86773 1862 ft 128 kts 213°
2026-04-23 22:42 34.36702 -119.87327 2048 ft 129 kts 212°
2026-04-23 22:42 34.35928 -119.87885 2231 ft 130 kts 212°
2026-04-23 22:42 34.35157 -119.88449 2432 ft 129 kts 212°
2026-04-23 22:43 34.34393 -119.89004 2629 ft 128 kts 214°
2026-04-23 22:43 34.33628 -119.89563 2826 ft 128 kts 213°
2026-04-23 22:43 34.32861 -119.90123 3026 ft 129 kts 213°
2026-04-23 22:43 34.32096 -119.90679 3222 ft 130 kts 215°
2026-04-23 22:44 34.31318 -119.91247 3415 ft 130 kts 213°
2026-04-23 22:44 34.30542 -119.91812 3612 ft 130 kts 212°
2026-04-23 22:44 34.29766 -119.92375 3802 ft 130 kts 215°
2026-04-23 22:44 34.28991 -119.92940 3998 ft 131 kts 214°
2026-04-23 22:45 34.28215 -119.93518 4211 ft 131 kts 216°
2026-04-23 22:45 34.27691 -119.94418 4400 ft 132 kts 252°
2026-04-23 22:45 34.27653 -119.95451 4746 ft 117 kts 285°
2026-04-23 22:45 34.27988 -119.96250 5086 ft 99 kts 314°
2026-04-23 22:46 34.28464 -119.96725 5401 ft 82 kts 335°
2026-04-23 22:46 34.28978 -119.96995 5541 ft 83 kts 335°
2026-04-23 22:46 34.29564 -119.97302 5564 ft 101 kts 339°
2026-04-23 22:46 34.30259 -119.97657 5618 ft 115 kts 338°
2026-04-23 22:47 34.31036 -119.98054 5718 ft 124 kts 339°
2026-04-23 22:47 34.31818 -119.98454 5942 ft 122 kts 339°
2026-04-23 22:47 34.32598 -119.98856 6161 ft 121 kts 339°
2026-04-23 22:47 34.33379 -119.99259 6344 ft 123 kts 339°
2026-04-23 22:48 34.34182 -119.99670 6477 ft 127 kts 338°
2026-04-23 22:48 34.35009 -120.00103 6602 ft 131 kts 340°
2026-04-23 22:48 34.35852 -120.00528 6727 ft 135 kts 339°
2026-04-23 22:48 34.36725 -120.00972 6856 ft 138 kts 338°
2026-04-23 22:49 34.37611 -120.01437 6983 ft 139 kts 338°
2026-04-23 22:49 34.38513 -120.01890 7109 ft 140 kts 339°
2026-04-23 22:49 34.39415 -120.02362 7235 ft 141 kts 338°
2026-04-23 22:49 34.40309 -120.02825 7356 ft 142 kts 337°
2026-04-23 22:50 34.41225 -120.03299 7477 ft 143 kts 337°
2026-04-23 22:50 34.42141 -120.03771 7604 ft 143 kts 338°
2026-04-23 22:50 34.43055 -120.04240 7725 ft 142 kts 337°
2026-04-23 22:50 34.43966 -120.04710 7849 ft 143 kts 336°
2026-04-23 22:51 34.44883 -120.05186 7973 ft 143 kts 336°
2026-04-23 22:51 34.45804 -120.05662 8081 ft 143 kts 336°
2026-04-23 22:51 34.46715 -120.06131 8214 ft 146 kts 336°
2026-04-23 22:51 34.47657 -120.06619 8336 ft 147 kts 336°
2026-04-23 22:52 34.48604 -120.07103 8464 ft 147 kts 335°
2026-04-23 22:52 34.49577 -120.07521 8593 ft 148 kts 338°
2026-04-23 22:52 34.50534 -120.07963 8715 ft 146 kts 338°
2026-04-23 22:52 34.51491 -120.08396 8844 ft 148 kts 337°
2026-04-23 22:53 34.52450 -120.08827 8962 ft 147 kts 337°
2026-04-23 22:53 34.53444 -120.09117 9086 ft 151 kts 357°
2026-04-23 22:53 34.54491 -120.08988 9216 ft 152 kts
2026-04-23 22:53 34.55547 -120.08888 9344 ft 152 kts
2026-04-23 22:54 34.56240 -120.08821 9427 ft 150 kts 359°
2026-04-23 22:54 34.57288 -120.08715 9551 ft 151 kts
2026-04-23 22:54 34.58334 -120.08608 9689 ft 150 kts
2026-04-23 22:54 34.59715 -120.08480 9857 ft 150 kts 358°
2026-04-23 22:55 34.60419 -120.08435 9939 ft 149 kts 358°
2026-04-23 22:55 34.61454 -120.08401 9979 ft 154 kts 356°
2026-04-23 22:55 34.62547 -120.08406 9977 ft 159 kts 355°
2026-04-23 22:55 34.63659 -120.08445 9980 ft 160 kts 353°
2026-04-23 22:56 34.64773 -120.08521 9977 ft 160 kts 352°
2026-04-23 22:56 34.65889 -120.08634 9977 ft 161 kts 350°
2026-04-23 22:56 34.67004 -120.08785 9980 ft 161 kts 348°
2026-04-23 22:56 34.68120 -120.08973 9979 ft 162 kts 347°
2026-04-23 22:57 34.69242 -120.09198 9978 ft 164 kts 347°
2026-04-23 22:57 34.70362 -120.09456 9980 ft 164 kts 346°
2026-04-23 22:57 34.71466 -120.09742 9980 ft 164 kts 345°
2026-04-23 22:57 34.72577 -120.10067 9980 ft 164 kts 343°
2026-04-23 22:58 34.73687 -120.10393 9975 ft 165 kts 352°
2026-04-23 22:58 34.74826 -120.10186 9967 ft 169 kts 20°
2026-04-23 22:58 34.75839 -120.09443 9971 ft 170 kts 28°
2026-04-23 22:58 34.76830 -120.08654 9976 ft 169 kts 29°
2026-04-23 22:59 34.77814 -120.07864 9974 ft 169 kts 29°
2026-04-23 22:59 34.78807 -120.07081 9977 ft 170 kts 27°
2026-04-23 22:59 34.79884 -120.06512 9983 ft 168 kts 11°
2026-04-23 22:59 34.81037 -120.06325 9986 ft 167 kts
2026-04-23 23:00 34.82197 -120.06221 9984 ft 167 kts
2026-04-23 23:00 34.83357 -120.06104 9981 ft 168 kts
2026-04-23 23:00 34.84505 -120.05993 9984 ft 168 kts
2026-04-23 23:00 34.85666 -120.05876 9986 ft 167 kts
2026-04-23 23:01 34.86809 -120.05766 9985 ft 164 kts
2026-04-23 23:01 34.87957 -120.05646 9993 ft 166 kts
2026-04-23 23:01 34.89113 -120.05531 9995 ft 167 kts
2026-04-23 23:01 34.90279 -120.05417 9995 ft 168 kts
2026-04-23 23:02 34.91446 -120.05298 9997 ft 168 kts
2026-04-23 23:02 34.92598 -120.05181 9999 ft 167 kts
2026-04-23 23:02 34.93755 -120.05066 9997 ft 166 kts
2026-04-23 23:02 34.94911 -120.04949 9999 ft 166 kts
2026-04-23 23:03 34.96061 -120.04831 10003 ft 166 kts
2026-04-23 23:03 34.97214 -120.04721 10007 ft 165 kts
2026-04-23 23:03 34.98357 -120.04609 9996 ft 163 kts
2026-04-23 23:03 34.99486 -120.04490 9995 ft 162 kts
2026-04-23 23:04 35.00614 -120.04382 9993 ft 162 kts
2026-04-23 23:04 35.01729 -120.04267 9991 ft 163 kts
2026-04-23 23:04 35.02868 -120.04147 9995 ft 164 kts
2026-04-23 23:04 35.04010 -120.04026 9997 ft 165 kts
2026-04-23 23:05 35.05160 -120.03918 9993 ft 166 kts
2026-04-23 23:05 35.06308 -120.03807 10003 ft 165 kts
2026-04-23 23:05 35.07451 -120.03692 9999 ft 165 kts
2026-04-23 23:05 35.08595 -120.03579 10000 ft 165 kts
2026-04-23 23:06 35.09720 -120.03462 10003 ft 164 kts
2026-04-23 23:06 35.10855 -120.03355 9997 ft 163 kts
2026-04-23 23:06 35.11986 -120.03233 9996 ft 163 kts
2026-04-23 23:06 35.13115 -120.03120 9997 ft 162 kts
2026-04-23 23:07 35.14245 -120.03004 9995 ft 164 kts
2026-04-23 23:07 35.15383 -120.02892 10002 ft 164 kts
2026-04-23 23:07 35.16511 -120.02778 10003 ft 164 kts
2026-04-23 23:07 35.17654 -120.02660 10001 ft 165 kts
2026-04-23 23:08 35.18802 -120.02542 10007 ft 165 kts
2026-04-23 23:08 35.19949 -120.02426 10006 ft 165 kts
2026-04-23 23:08 35.21098 -120.02312 10007 ft 166 kts
2026-04-23 23:08 35.22250 -120.02196 10013 ft 166 kts
2026-04-23 23:09 35.23397 -120.02079 10008 ft 165 kts
2026-04-23 23:09 35.24530 -120.01958 10014 ft 165 kts
2026-04-23 23:09 35.25673 -120.01841 10015 ft 164 kts
2026-04-23 23:09 35.26814 -120.01730 10013 ft 164 kts
2026-04-23 23:10 35.27955 -120.01619 10009 ft 164 kts
2026-04-23 23:10 35.29101 -120.01505 10016 ft 165 kts
2026-04-23 23:10 35.30232 -120.01394 10010 ft 165 kts
2026-04-23 23:10 35.31380 -120.01271 10011 ft 165 kts
2026-04-23 23:11 35.32524 -120.01151 10014 ft 165 kts
2026-04-23 23:11 35.33663 -120.01029 10022 ft 164 kts
2026-04-23 23:11 35.34810 -120.00920 10022 ft 164 kts
2026-04-23 23:11 35.35935 -120.00805 10025 ft 164 kts
2026-04-23 23:12 35.37073 -120.00685 10021 ft 164 kts
2026-04-23 23:12 35.38211 -120.00576 10025 ft 164 kts
2026-04-23 23:12 35.39345 -120.00465 10022 ft 163 kts
2026-04-23 23:12 35.40479 -120.00344 10021 ft 163 kts
2026-04-23 23:13 35.41612 -120.00229 10025 ft 163 kts
2026-04-23 23:13 35.42747 -120.00118 10030 ft 163 kts 360°
2026-04-23 23:13 35.43883 -120.00006 10030 ft 164 kts
2026-04-23 23:13 35.45004 -119.99881 10033 ft 164 kts
2026-04-23 23:14 35.46141 -119.99771 10037 ft 164 kts
2026-04-23 23:14 35.47280 -119.99661 10037 ft 164 kts
2026-04-23 23:14 35.48417 -119.99546 10037 ft 164 kts
2026-04-23 23:14 35.49561 -119.99425 10039 ft 164 kts
2026-04-23 23:15 35.50707 -119.99311 10033 ft 165 kts
2026-04-23 23:15 35.51835 -119.99178 10044 ft 165 kts
2026-04-23 23:15 35.52992 -119.99070 10042 ft 165 kts
2026-04-23 23:15 35.54124 -119.98963 10041 ft 165 kts
2026-04-23 23:16 35.55268 -119.98842 10038 ft 165 kts
2026-04-23 23:16 35.56413 -119.98723 10046 ft 165 kts
2026-04-23 23:16 35.57560 -119.98606 10044 ft 165 kts
2026-04-23 23:16 35.58690 -119.98493 10041 ft 165 kts
2026-04-23 23:17 35.59832 -119.98373 10038 ft 165 kts
2026-04-23 23:17 35.60975 -119.98256 10052 ft 164 kts
2026-04-23 23:17 35.62114 -119.98140 10051 ft 164 kts
2026-04-23 23:17 35.63254 -119.98024 10054 ft 164 kts
2026-04-23 23:18 35.64389 -119.97913 10048 ft 163 kts
2026-04-23 23:18 35.65520 -119.97943 10051 ft 162 kts 352°
2026-04-23 23:18 35.66653 -119.98061 10046 ft 164 kts 353°
2026-04-23 23:18 35.67787 -119.98162 10056 ft 163 kts 354°
2026-04-23 23:19 35.68919 -119.98265 10046 ft 163 kts 353°
2026-04-23 23:19 35.70040 -119.98365 10046 ft 163 kts 353°
2026-04-23 23:19 35.71171 -119.98476 10054 ft 163 kts 353°
2026-04-23 23:19 35.72305 -119.98579 10046 ft 163 kts 353°
2026-04-23 23:20 35.73439 -119.98680 10045 ft 163 kts 354°
2026-04-23 23:20 35.74572 -119.98788 10046 ft 163 kts 352°
2026-04-23 23:20 35.75691 -119.98891 10047 ft 163 kts 353°
2026-04-23 23:20 35.76824 -119.99003 10045 ft 164 kts 354°
2026-04-23 23:21 35.77959 -119.99101 10045 ft 163 kts 353°
2026-04-23 23:21 35.79092 -119.99205 10042 ft 163 kts 352°
2026-04-23 23:21 35.80224 -119.99308 10041 ft 163 kts 354°
2026-04-23 23:21 35.81361 -119.99417 10044 ft 163 kts 352°
2026-04-23 23:22 35.82489 -119.99523 10047 ft 163 kts 354°
2026-04-23 23:22 35.83605 -119.99623 10047 ft 163 kts 354°
2026-04-23 23:22 35.84738 -119.99727 10049 ft 163 kts 353°
2026-04-23 23:22 35.85868 -119.99831 10048 ft 163 kts 353°
2026-04-23 23:23 35.86998 -119.99932 10050 ft 163 kts 353°
2026-04-23 23:23 35.88132 -120.00038 10048 ft 163 kts 353°
2026-04-23 23:23 35.89261 -120.00146 10046 ft 163 kts 354°
2026-04-23 23:23 35.90394 -120.00249 10046 ft 163 kts 354°
2026-04-23 23:24 35.91513 -120.00356 10043 ft 163 kts 353°
2026-04-23 23:24 35.92642 -120.00461 10044 ft 162 kts 353°
2026-04-23 23:24 35.93773 -120.00563 10044 ft 163 kts 354°
2026-04-23 23:24 35.94906 -120.00667 10043 ft 163 kts 353°
2026-04-23 23:25 35.96035 -120.00772 10043 ft 162 kts 354°
2026-04-23 23:25 35.97163 -120.00876 10042 ft 162 kts 353°
2026-04-23 23:25 35.98294 -120.00979 10042 ft 162 kts 352°
2026-04-23 23:25 35.99405 -120.01088 10042 ft 162 kts 353°
2026-04-23 23:26 36.00533 -120.01188 10041 ft 163 kts 354°
2026-04-23 23:26 36.01666 -120.01294 10041 ft 163 kts 354°
2026-04-23 23:26 36.02798 -120.01401 10044 ft 163 kts 353°
2026-04-23 23:26 36.03930 -120.01507 10046 ft 164 kts 354°
2026-04-23 23:27 36.05068 -120.01610 10049 ft 164 kts 353°
2026-04-23 23:27 36.06207 -120.01717 10047 ft 164 kts 354°
2026-04-23 23:27 36.07343 -120.01822 10045 ft 164 kts 354°
2026-04-23 23:27 36.08487 -120.01929 10042 ft 164 kts 354°
2026-04-23 23:28 36.09613 -120.02034 10046 ft 164 kts 354°
2026-04-23 23:28 36.10757 -120.02141 10044 ft 165 kts 354°
2026-04-23 23:28 36.11907 -120.02248 10046 ft 166 kts 354°
2026-04-23 23:28 36.13058 -120.02354 10046 ft 165 kts 354°
2026-04-23 23:29 36.14187 -120.02456 10047 ft 165 kts 354°
2026-04-23 23:29 36.15338 -120.02567 10046 ft 165 kts 353°
2026-04-23 23:29 36.16479 -120.02674 10047 ft 164 kts 354°
2026-04-23 23:29 36.17617 -120.02780 10044 ft 164 kts 354°
2026-04-23 23:30 36.18757 -120.02889 10038 ft 164 kts 353°
2026-04-23 23:30 36.19892 -120.02993 10041 ft 163 kts 354°
2026-04-23 23:30 36.21023 -120.03093 10043 ft 163 kts 354°
2026-04-23 23:30 36.22154 -120.03202 10042 ft 163 kts 354°
2026-04-23 23:31 36.23283 -120.03308 10047 ft 163 kts 354°
2026-04-23 23:31 36.24398 -120.03410 10046 ft 163 kts 354°
2026-04-23 23:31 36.25529 -120.03519 10044 ft 163 kts 353°
2026-04-23 23:31 36.26660 -120.03626 10046 ft 163 kts 353°
2026-04-23 23:32 36.27792 -120.03730 10045 ft 164 kts 354°
2026-04-23 23:32 36.28928 -120.03835 10044 ft 164 kts 354°
2026-04-23 23:32 36.30061 -120.03944 10047 ft 164 kts 354°
2026-04-23 23:32 36.31202 -120.04053 10046 ft 165 kts 354°
2026-04-23 23:33 36.32331 -120.04156 10042 ft 164 kts 354°
2026-04-23 23:33 36.33469 -120.04260 10045 ft 164 kts 354°
2026-04-23 23:33 36.34609 -120.04367 10043 ft 164 kts 354°
2026-04-23 23:33 36.35753 -120.04476 10043 ft 165 kts 353°
2026-04-23 23:34 36.36891 -120.04582 10046 ft 164 kts 353°
2026-04-23 23:34 36.38030 -120.04689 10045 ft 164 kts 353°
2026-04-23 23:34 36.39171 -120.04794 10045 ft 164 kts 354°
2026-04-23 23:34 36.40308 -120.04900 10046 ft 164 kts 354°
2026-04-23 23:35 36.41432 -120.05006 10044 ft 164 kts 354°
2026-04-23 23:35 36.42571 -120.05115 10044 ft 164 kts 354°
2026-04-23 23:35 36.43709 -120.05224 10045 ft 164 kts 354°
2026-04-23 23:35 36.44845 -120.05327 10043 ft 164 kts 354°
2026-04-23 23:36 36.45983 -120.05435 10048 ft 164 kts 354°
2026-04-23 23:36 36.47121 -120.05538 10050 ft 164 kts 353°
2026-04-23 23:36 36.48263 -120.05650 10048 ft 165 kts 354°
2026-04-23 23:36 36.49407 -120.05756 10052 ft 164 kts 354°
2026-04-23 23:37 36.50546 -120.05862 10055 ft 163 kts 354°
2026-04-23 23:37 36.51673 -120.05974 10052 ft 165 kts 354°
2026-04-23 23:37 36.52819 -120.06078 10055 ft 166 kts 355°
2026-04-23 23:37 36.53973 -120.06185 10052 ft 166 kts 354°
2026-04-23 23:38 36.55129 -120.06303 10049 ft 166 kts 354°
2026-04-23 23:38 36.56284 -120.06408 10051 ft 166 kts 354°
2026-04-23 23:38 36.57423 -120.06512 10052 ft 166 kts 354°
2026-04-23 23:38 36.58576 -120.06619 10051 ft 166 kts 354°
2026-04-23 23:39 36.59731 -120.06727 10052 ft 166 kts 354°
2026-04-23 23:39 36.60883 -120.06837 10052 ft 166 kts 354°
2026-04-23 23:39 36.62035 -120.06948 10050 ft 166 kts 354°
2026-04-23 23:39 36.63193 -120.07055 10050 ft 167 kts 354°
2026-04-23 23:40 36.64333 -120.07159 10051 ft 166 kts 354°
2026-04-23 23:40 36.65487 -120.07276 10050 ft 167 kts 354°
2026-04-23 23:40 36.66649 -120.07383 10051 ft 167 kts 354°
2026-04-23 23:40 36.67807 -120.07488 10051 ft 167 kts 354°
2026-04-23 23:41 36.68965 -120.07598 10053 ft 166 kts 354°
2026-04-23 23:41 36.70108 -120.07709 10052 ft 167 kts 354°
2026-04-23 23:41 36.71266 -120.07816 10049 ft 166 kts 353°
2026-04-23 23:41 36.72420 -120.07931 10051 ft 166 kts 354°
2026-04-23 23:42 36.73581 -120.08038 10051 ft 167 kts 354°
2026-04-23 23:42 36.74348 -120.08108 10053 ft 167 kts 354°
2026-04-23 23:42 36.75902 -120.08257 10051 ft 168 kts 354°
2026-04-23 23:42 36.76674 -120.08331 10051 ft 168 kts 354°
2026-04-23 23:43 36.77835 -120.08438 10052 ft 167 kts 354°
2026-04-23 23:43 36.79370 -120.08584 10049 ft 167 kts 354°
2026-04-23 23:43 36.80151 -120.08660 10049 ft 167 kts 353°
2026-04-23 23:43 36.81309 -120.08774 10048 ft 166 kts 354°
2026-04-23 23:44 36.82448 -120.08879 10047 ft 166 kts 354°
2026-04-23 23:44 36.83602 -120.08985 10045 ft 166 kts 354°
2026-04-23 23:44 36.84756 -120.09093 10047 ft 166 kts 354°
2026-04-23 23:44 36.85911 -120.09205 10048 ft 166 kts 354°
2026-04-23 23:45 36.87070 -120.09315 10044 ft 167 kts 355°
2026-04-23 23:45 36.88230 -120.09426 10042 ft 167 kts 354°
2026-04-23 23:45 36.89374 -120.09533 10042 ft 167 kts 355°
2026-04-23 23:45 36.90536 -120.09644 10041 ft 167 kts 355°
2026-04-23 23:46 36.91695 -120.09754 10043 ft 167 kts 355°
2026-04-23 23:46 36.92857 -120.09864 10041 ft 167 kts 354°
2026-04-23 23:46 36.94018 -120.09976 10043 ft 168 kts 354°
2026-04-23 23:46 36.95184 -120.10087 10042 ft 168 kts 354°
2026-04-23 23:47 36.96354 -120.10200 10045 ft 169 kts 355°
2026-04-23 23:47 36.97524 -120.10310 10046 ft 169 kts 354°
2026-04-23 23:47 36.98681 -120.10420 10046 ft 169 kts 354°
2026-04-23 23:47 36.99854 -120.10532 10045 ft 169 kts 355°
2026-04-23 23:48 37.01026 -120.10644 10045 ft 168 kts 354°
2026-04-23 23:48 37.02193 -120.10755 10045 ft 168 kts 354°
2026-04-23 23:48 37.03362 -120.10867 10044 ft 169 kts 355°
2026-04-23 23:48 37.04531 -120.10978 10045 ft 169 kts 355°
2026-04-23 23:49 37.06878 -120.11201 10044 ft 169 kts 355°
2026-04-23 23:49 37.08040 -120.11322 10042 ft 170 kts 356°
2026-04-23 23:49 37.09203 -120.11292 10043 ft 165 kts
2026-04-23 23:50 37.10345 -120.11406 10043 ft 165 kts 342°
2026-04-23 23:50 37.11470 -120.11667 10040 ft 165 kts 352°
2026-04-23 23:50 37.12619 -120.11773 10041 ft 166 kts 355°
2026-04-23 23:50 37.13764 -120.11863 10041 ft 167 kts 354°
2026-04-23 23:51 37.14924 -120.11976 10043 ft 167 kts 354°
2026-04-23 23:51 37.16086 -120.12081 10044 ft 167 kts 354°
2026-04-23 23:51 37.17249 -120.12191 10045 ft 168 kts 354°
2026-04-23 23:51 37.18415 -120.12307 10045 ft 168 kts 354°
2026-04-23 23:52 37.19582 -120.12418 10044 ft 168 kts 354°
2026-04-23 23:52 37.20751 -120.12531 10044 ft 168 kts 355°
2026-04-23 23:52 37.21919 -120.12641 10045 ft 168 kts 354°
2026-04-23 23:52 37.23088 -120.12750 10044 ft 168 kts 355°
2026-04-23 23:53 37.24243 -120.12862 10044 ft 168 kts 355°
2026-04-23 23:53 37.25410 -120.12975 10046 ft 168 kts 354°
2026-04-23 23:53 37.26577 -120.13087 10044 ft 168 kts 355°
2026-04-23 23:53 37.27749 -120.13201 10041 ft 169 kts 356°
2026-04-23 23:54 37.28921 -120.13313 10041 ft 169 kts 356°
2026-04-23 23:54 37.30096 -120.13424 10039 ft 169 kts 355°
2026-04-23 23:54 37.31259 -120.13535 10039 ft 170 kts 356°
2026-04-23 23:54 37.32435 -120.13649 10040 ft 170 kts 355°
2026-04-23 23:55 37.33616 -120.13764 10037 ft 170 kts 356°
2026-04-23 23:55 37.34796 -120.13877 10037 ft 170 kts 356°
2026-04-23 23:55 37.35977 -120.13990 10035 ft 170 kts 356°
2026-04-23 23:55 37.37158 -120.14103 10035 ft 170 kts 356°
2026-04-23 23:56 37.38342 -120.14217 10035 ft 170 kts 356°
2026-04-23 23:56 37.39509 -120.14329 10034 ft 170 kts 356°
2026-04-23 23:56 37.40693 -120.14444 10034 ft 170 kts 356°
2026-04-23 23:56 37.41873 -120.14558 10035 ft 170 kts 356°
2026-04-23 23:57 37.43055 -120.14671 10040 ft 170 kts 356°
2026-04-23 23:57 37.44234 -120.14784 10039 ft 170 kts 356°
2026-04-23 23:57 37.45412 -120.14898 10038 ft 170 kts 356°
2026-04-23 23:57 37.46592 -120.15014 10040 ft 170 kts 355°
2026-04-23 23:58 37.47775 -120.15128 10040 ft 170 kts 356°
2026-04-23 23:58 37.48945 -120.15255 10039 ft 171 kts 357°
2026-04-23 23:58 37.50135 -120.15353 10038 ft 171 kts 358°
2026-04-23 23:58 37.51324 -120.15462 10039 ft 171 kts 358°
2026-04-23 23:59 37.52510 -120.15589 10034 ft 171 kts 358°
2026-04-23 23:59 37.53692 -120.15699 10038 ft 170 kts 358°
2026-04-23 23:59 37.54880 -120.15811 10038 ft 171 kts 356°
2026-04-23 23:59 37.56068 -120.15940 10034 ft 171 kts 359°
2026-04-24 00:00 37.57249 -120.16044 10033 ft 170 kts 356°
2026-04-24 00:00 37.58425 -120.16164 10041 ft 169 kts 357°
2026-04-24 00:00 37.59589 -120.16279 10043 ft 170 kts 358°
2026-04-24 00:00 37.60779 -120.16392 10043 ft 172 kts 357°
2026-04-24 00:01 37.61976 -120.16499 10044 ft 172 kts 357°
2026-04-24 00:01 37.63176 -120.16609 10045 ft 173 kts 358°
2026-04-24 00:01 37.64384 -120.16716 10047 ft 174 kts 357°
2026-04-24 00:01 37.65583 -120.16846 10041 ft 171 kts 356°
2026-04-24 00:02 37.66765 -120.16975 10039 ft 170 kts 358°
2026-04-24 00:02 37.67948 -120.17081 10039 ft 171 kts 359°
2026-04-24 00:02 37.69138 -120.17201 10034 ft 172 kts 359°
2026-04-24 00:02 37.70323 -120.17307 10038 ft 173 kts 359°
2026-04-24 00:03 37.71523 -120.17437 10040 ft 173 kts 358°
2026-04-24 00:03 37.72726 -120.17555 10035 ft 172 kts 360°
2026-04-24 00:03 37.73918 -120.17658 10032 ft 172 kts 359°
2026-04-24 00:03 37.75108 -120.17771 10036 ft 171 kts 359°
2026-04-24 00:04 37.76297 -120.17879 10040 ft 172 kts
2026-04-24 00:04 37.77493 -120.17999 10042 ft 173 kts 358°
2026-04-24 00:04 37.78695 -120.18119 10041 ft 173 kts 359°
2026-04-24 00:04 37.79899 -120.18231 10041 ft 173 kts 360°
2026-04-24 00:05 37.81107 -120.18360 10041 ft 174 kts 358°
2026-04-24 00:05 37.82294 -120.18482 10045 ft 174 kts
2026-04-24 00:05 37.83510 -120.18580 10046 ft 174 kts 359°
2026-04-24 00:05 37.84722 -120.18706 10045 ft 175 kts 358°
2026-04-24 00:06 37.85936 -120.18829 10044 ft 174 kts 359°
2026-04-24 00:06 37.87147 -120.18947 10043 ft 175 kts 359°
2026-04-24 00:06 37.88358 -120.19066 10041 ft 174 kts 359°
2026-04-24 00:06 37.89544 -120.19180 10041 ft 172 kts 359°
2026-04-24 00:07 37.90739 -120.19297 10037 ft 173 kts 359°
2026-04-24 00:07 37.91938 -120.19418 10036 ft 173 kts 359°
2026-04-24 00:07 37.93135 -120.19529 10037 ft 172 kts 360°
2026-04-24 00:07 37.94322 -120.19646 10038 ft 168 kts
2026-04-24 00:08 37.95492 -120.19755 10041 ft 168 kts 359°
2026-04-24 00:08 37.96646 -120.19870 10046 ft 169 kts 360°
2026-04-24 00:08 37.97823 -120.19989 10043 ft 170 kts 359°
2026-04-24 00:08 37.98988 -120.20099 10048 ft 167 kts
2026-04-24 00:09 38.00156 -120.20216 10057 ft 170 kts 359°
2026-04-24 00:09 38.01342 -120.20343 10058 ft 172 kts 359°
2026-04-24 00:09 38.02535 -120.20455 10055 ft 171 kts 359°
2026-04-24 00:09 38.03731 -120.20569 10051 ft 173 kts 359°
2026-04-24 00:10 38.04927 -120.20684 10047 ft 172 kts 359°
2026-04-24 00:10 38.06119 -120.20802 10050 ft 172 kts 359°
2026-04-24 00:10 38.07294 -120.20920 10049 ft 171 kts 359°
2026-04-24 00:10 38.08484 -120.21032 10054 ft 171 kts 360°
2026-04-24 00:11 38.09669 -120.21146 10056 ft 170 kts
2026-04-24 00:11 38.10854 -120.21263 10062 ft 171 kts 358°
2026-04-24 00:11 38.12039 -120.21392 10061 ft 170 kts 358°
2026-04-24 00:11 38.13225 -120.21498 10053 ft 172 kts
2026-04-24 00:12 38.14415 -120.21607 10050 ft 171 kts 359°
2026-04-24 00:12 38.15600 -120.21730 10049 ft 170 kts 359°
2026-04-24 00:12 38.16778 -120.21848 10054 ft 169 kts
2026-04-24 00:12 38.17939 -120.21955 10055 ft 169 kts 359°
2026-04-24 00:13 38.19117 -120.22077 10057 ft 168 kts 359°
2026-04-24 00:13 38.20278 -120.22190 10060 ft 167 kts
2026-04-24 00:13 38.21442 -120.22304 10059 ft 168 kts
2026-04-24 00:13 38.22605 -120.22424 10058 ft 168 kts
2026-04-24 00:14 38.23771 -120.22537 10059 ft 168 kts 359°
2026-04-24 00:14 38.24928 -120.22650 10082 ft 169 kts 359°
2026-04-24 00:14 38.26107 -120.22769 10069 ft 170 kts 358°
2026-04-24 00:14 38.27285 -120.22888 10077 ft 169 kts 359°
2026-04-24 00:15 38.28473 -120.23017 10063 ft 170 kts 360°
2026-04-24 00:15 38.29650 -120.23107 10070 ft 169 kts 358°
2026-04-24 00:15 38.30815 -120.23235 10074 ft 167 kts 358°
2026-04-24 00:15 38.31970 -120.23348 10084 ft 167 kts 358°
2026-04-24 00:16 38.33133 -120.23468 10078 ft 168 kts 359°
2026-04-24 00:16 38.34300 -120.23571 10084 ft 168 kts 358°
2026-04-24 00:16 38.35448 -120.23694 10078 ft 168 kts 358°
2026-04-24 00:16 38.36615 -120.23810 10081 ft 169 kts 358°
2026-04-24 00:17 38.37787 -120.23919 10079 ft 168 kts 360°
2026-04-24 00:17 38.38953 -120.24034 10081 ft 168 kts 358°
2026-04-24 00:17 38.40121 -120.24148 10083 ft 168 kts 360°
2026-04-24 00:17 38.41287 -120.24247 10081 ft 169 kts 360°
2026-04-24 00:18 38.42456 -120.24379 10085 ft 169 kts 359°
2026-04-24 00:18 38.43633 -120.24510 10083 ft 169 kts 360°
2026-04-24 00:18 38.44790 -120.24613 10078 ft 168 kts 358°
2026-04-24 00:18 38.45961 -120.24736 10086 ft 170 kts 359°
2026-04-24 00:19 38.47142 -120.24850 10077 ft 169 kts
2026-04-24 00:19 38.48314 -120.24952 10080 ft 168 kts 360°
2026-04-24 00:19 38.49481 -120.25084 10076 ft 168 kts 359°
2026-04-24 00:19 38.50646 -120.25189 10081 ft 169 kts
2026-04-24 00:20 38.51814 -120.25318 10078 ft 167 kts 359°
2026-04-24 00:20 38.52973 -120.25435 10081 ft 168 kts 359°
2026-04-24 00:20 38.54127 -120.25546 10081 ft 169 kts 360°
2026-04-24 00:20 38.55303 -120.25673 10081 ft 169 kts 358°
2026-04-24 00:21 38.56472 -120.25781 10085 ft 167 kts
2026-04-24 00:21 38.57634 -120.25875 10088 ft 166 kts
2026-04-24 00:21 38.58788 -120.26000 10087 ft 166 kts 358°
2026-04-24 00:21 38.59947 -120.26114 10086 ft 166 kts 358°
2026-04-24 00:22 38.61097 -120.26217 10084 ft 165 kts 358°
2026-04-24 00:22 38.62224 -120.26355 10080 ft 165 kts 357°
2026-04-24 00:22 38.63341 -120.26187 10079 ft 161 kts 23°
2026-04-24 00:22 38.64274 -120.25421 10084 ft 159 kts 41°
2026-04-24 00:23 38.65143 -120.24517 10085 ft 163 kts 39°
2026-04-24 00:23 38.66025 -120.23624 10093 ft 164 kts 39°
2026-04-24 00:23 38.66921 -120.22701 10091 ft 165 kts 40°
2026-04-24 00:23 38.67814 -120.21779 10094 ft 165 kts 40°
2026-04-24 00:24 38.68713 -120.20860 10093 ft 164 kts 40°
2026-04-24 00:24 38.69605 -120.19940 10084 ft 163 kts 39°
2026-04-24 00:24 38.70480 -120.19057 10079 ft 161 kts 40°
2026-04-24 00:24 38.71341 -120.18154 10081 ft 159 kts 40°
2026-04-24 00:25 38.72206 -120.17273 10080 ft 159 kts 39°
2026-04-24 00:25 38.73070 -120.16391 10069 ft 158 kts 40°
2026-04-24 00:25 38.73928 -120.15507 10074 ft 157 kts 39°
2026-04-24 00:25 38.74785 -120.14621 10079 ft 160 kts 40°
2026-04-24 00:26 38.75666 -120.13717 10086 ft 163 kts 39°
2026-04-24 00:26 38.76557 -120.12799 10083 ft 164 kts 39°
2026-04-24 00:26 38.77448 -120.11879 10080 ft 164 kts 39°
2026-04-24 00:26 38.78335 -120.10965 10075 ft 162 kts 39°
2026-04-24 00:27 38.79219 -120.10052 10069 ft 164 kts 36°
2026-04-24 00:27 38.80118 -120.09153 10075 ft 168 kts 37°
2026-04-24 00:27 38.81029 -120.08215 10072 ft 168 kts 38°
2026-04-24 00:27 38.81935 -120.07268 10068 ft 167 kts 38°
2026-04-24 00:28 38.82834 -120.06338 10071 ft 164 kts 37°
2026-04-24 00:28 38.83716 -120.05433 10067 ft 164 kts 38°
2026-04-24 00:28 38.84608 -120.04515 10065 ft 165 kts 37°
2026-04-24 00:28 38.85506 -120.03588 10068 ft 165 kts 37°
2026-04-24 00:29 38.86403 -120.02665 10067 ft 165 kts 38°
2026-04-24 00:29 38.86994 -120.02052 10066 ft 165 kts 38°
2026-04-24 00:29 38.87891 -120.01125 10067 ft 165 kts 37°
2026-04-24 00:29 38.88784 -120.00203 10065 ft 164 kts 37°
2026-04-24 00:30 38.89676 -119.99286 10086 ft 164 kts 38°
2026-04-24 00:30 38.90570 -119.98363 10089 ft 165 kts 37°
2026-04-24 00:30 38.91464 -119.97435 10090 ft 165 kts 37°
2026-04-24 00:30 38.92361 -119.96502 10089 ft 165 kts 37°
2026-04-24 00:31 38.93256 -119.95578 10093 ft 164 kts 37°
2026-04-24 00:31 38.94137 -119.94669 10090 ft 165 kts 37°
2026-04-24 00:31 38.95033 -119.93740 10091 ft 165 kts 37°
2026-04-24 00:31 38.95930 -119.92813 10092 ft 166 kts 38°
2026-04-24 00:32 38.96831 -119.91886 10090 ft 166 kts 38°
2026-04-24 00:32 38.97728 -119.90950 10086 ft 166 kts 38°
2026-04-24 00:32 38.98624 -119.90018 10034 ft 165 kts 37°
2026-04-24 00:32 38.99516 -119.89096 10034 ft 165 kts 37°
2026-04-24 00:33 39.00407 -119.88175 10037 ft 167 kts 37°
2026-04-24 00:33 39.01326 -119.87221 10037 ft 168 kts 38°
2026-04-24 00:33 39.02227 -119.86285 10039 ft 169 kts 38°
2026-04-24 00:33 39.03135 -119.85341 10032 ft 166 kts 38°
2026-04-24 00:34 39.04036 -119.84405 10032 ft 166 kts 38°
2026-04-24 00:34 39.04937 -119.83468 10034 ft 167 kts 38°
2026-04-24 00:34 39.05838 -119.82530 10037 ft 167 kts 38°
2026-04-24 00:34 39.06745 -119.81590 10034 ft 168 kts 38°
2026-04-24 00:35 39.07658 -119.80642 10035 ft 168 kts 38°
2026-04-24 00:35 39.08567 -119.79696 10035 ft 168 kts 38°
2026-04-24 00:35 39.09476 -119.78749 10034 ft 168 kts 38°
2026-04-24 00:35 39.10387 -119.77801 10052 ft 168 kts 38°
2026-04-24 00:36 39.11297 -119.76854 10053 ft 168 kts 38°
2026-04-24 00:36 39.12196 -119.75916 10053 ft 168 kts 37°
2026-04-24 00:36 39.13106 -119.74969 10052 ft 168 kts 38°
2026-04-24 00:36 39.14015 -119.74022 10051 ft 168 kts 38°
2026-04-24 00:37 39.14923 -119.73073 10053 ft 168 kts 38°
2026-04-24 00:37 39.15831 -119.72127 10052 ft 168 kts 38°
2026-04-24 00:37 39.16731 -119.71187 10052 ft 168 kts 38°
2026-04-24 00:37 39.17642 -119.70236 10051 ft 168 kts 38°
2026-04-24 00:38 39.18551 -119.69288 10050 ft 168 kts 38°
2026-04-24 00:38 39.19459 -119.68338 10050 ft 168 kts 38°
2026-04-24 00:38 39.20368 -119.67389 10052 ft 168 kts 38°
2026-04-24 00:38 39.21285 -119.66430 10055 ft 170 kts 38°
2026-04-24 00:39 39.22210 -119.65461 10056 ft 172 kts 38°
2026-04-24 00:39 39.23127 -119.64503 10055 ft 171 kts 38°
2026-04-24 00:39 39.24052 -119.63534 10053 ft 170 kts 38°
2026-04-24 00:39 39.24972 -119.62573 10050 ft 169 kts 38°
2026-04-24 00:40 39.25871 -119.61632 10046 ft 168 kts 38°
2026-04-24 00:40 39.26783 -119.60676 10043 ft 169 kts 38°
2026-04-24 00:40 39.27696 -119.59719 10041 ft 168 kts 38°
2026-04-24 00:40 39.28594 -119.58778 10035 ft 167 kts 38°
2026-04-24 00:41 39.29497 -119.57830 10034 ft 167 kts 38°
2026-04-24 00:41 39.30402 -119.56882 10031 ft 168 kts 38°
2026-04-24 00:41 39.31311 -119.55928 10026 ft 168 kts 38°
2026-04-24 00:41 39.32219 -119.54975 10025 ft 168 kts 38°
2026-04-24 00:42 39.33124 -119.54023 10020 ft 168 kts 38°
2026-04-24 00:42 39.34020 -119.53052 10015 ft 168 kts 37°
2026-04-24 00:42 39.34928 -119.52121 10013 ft 169 kts 35°
2026-04-24 00:42 39.35852 -119.51164 10010 ft 170 kts 36°
2026-04-24 00:43 39.36773 -119.50195 10011 ft 171 kts 37°
2026-04-24 00:43 39.37695 -119.49220 10010 ft 171 kts 36°
2026-04-24 00:43 39.38617 -119.48252 10009 ft 170 kts 37°
2026-04-24 00:43 39.39521 -119.47298 10007 ft 170 kts 36°
2026-04-24 00:44 39.40438 -119.46332 10006 ft 170 kts 36°
2026-04-24 00:44 39.41359 -119.45361 10004 ft 170 kts 37°
2026-04-24 00:44 39.42277 -119.44392 10004 ft 169 kts 36°
2026-04-24 00:44 39.43194 -119.43427 10005 ft 169 kts 37°
2026-04-24 00:45 39.44106 -119.42470 10006 ft 168 kts 36°
2026-04-24 00:45 39.45014 -119.41514 10004 ft 168 kts 37°
2026-04-24 00:45 39.45909 -119.40561 10001 ft 169 kts 37°
2026-04-24 00:45 39.46821 -119.39596 10001 ft 170 kts 37°
2026-04-24 00:46 39.47737 -119.38630 9999 ft 170 kts 36°
2026-04-24 00:46 39.48655 -119.37663 10000 ft 171 kts 36°
2026-04-24 00:46 39.49577 -119.36693 9999 ft 170 kts 36°
2026-04-24 00:46 39.50498 -119.35718 9990 ft 170 kts 36°
2026-04-24 00:47 39.51417 -119.34748 9996 ft 170 kts 36°
2026-04-24 00:47 39.52323 -119.33786 9994 ft 171 kts 37°
2026-04-24 00:47 39.53245 -119.32812 9988 ft 170 kts 36°
2026-04-24 00:47 39.54163 -119.31841 9988 ft 169 kts 38°
2026-04-24 00:48 39.55075 -119.30873 9991 ft 169 kts 37°
2026-04-24 00:48 39.55990 -119.29904 9991 ft 170 kts 38°
2026-04-24 00:48 39.56905 -119.28934 9990 ft 169 kts 37°
2026-04-24 00:48 39.57820 -119.27968 9990 ft 169 kts 38°
2026-04-24 00:49 39.58720 -119.27011 9987 ft 169 kts 38°
2026-04-24 00:49 39.59629 -119.26042 9985 ft 169 kts 38°
2026-04-24 00:49 39.60543 -119.25074 9984 ft 169 kts 38°
2026-04-24 00:49 39.61450 -119.24098 9995 ft 169 kts 37°
2026-04-24 00:50 39.62365 -119.23139 9997 ft 169 kts 36°
2026-04-24 00:50 39.63274 -119.22177 9997 ft 169 kts 37°
2026-04-24 00:50 39.64182 -119.21212 9996 ft 169 kts 37°
2026-04-24 00:50 39.65091 -119.20245 10002 ft 169 kts 37°
2026-04-24 00:51 39.65986 -119.19294 9998 ft 169 kts 37°
2026-04-24 00:51 39.66896 -119.18325 9998 ft 169 kts 36°
2026-04-24 00:51 39.67808 -119.17355 9998 ft 169 kts 37°
2026-04-24 00:51 39.68718 -119.16386 10000 ft 169 kts 37°
2026-04-24 00:52 39.69627 -119.15418 9997 ft 168 kts 37°
2026-04-24 00:52 39.70530 -119.14456 9997 ft 168 kts 37°
2026-04-24 00:52 39.71420 -119.13507 9996 ft 168 kts 37°
2026-04-24 00:52 39.72322 -119.12545 9991 ft 168 kts 37°
2026-04-24 00:53 39.73224 -119.11584 9992 ft 168 kts 37°
2026-04-24 00:53 39.74129 -119.10619 9993 ft 168 kts 37°
2026-04-24 00:53 39.75037 -119.09649 9992 ft 169 kts 37°
2026-04-24 00:53 39.75946 -119.08679 10002 ft 169 kts 37°
2026-04-24 00:54 39.76851 -119.07712 10000 ft 168 kts 37°
2026-04-24 00:54 39.77757 -119.06745 10000 ft 168 kts 37°
2026-04-24 00:54 39.78659 -119.05782 10000 ft 168 kts 37°
2026-04-24 00:54 39.79553 -119.04825 9999 ft 169 kts 37°
2026-04-24 00:55 39.80461 -119.03855 10003 ft 169 kts 37°
2026-04-24 00:55 39.81368 -119.02884 10001 ft 169 kts 37°
2026-04-24 00:55 39.82275 -119.01910 10000 ft 169 kts 37°
2026-04-24 00:55 39.83180 -119.00944 10000 ft 168 kts 37°
2026-04-24 00:56 39.84084 -118.99977 10000 ft 168 kts 38°
2026-04-24 00:56 39.84988 -118.99008 10000 ft 168 kts 37°
2026-04-24 00:56 39.85892 -118.98039 9998 ft 168 kts 38°
2026-04-24 00:56 39.86796 -118.97071 9999 ft 168 kts 37°
2026-04-24 00:57 39.87699 -118.96102 10006 ft 168 kts 38°
2026-04-24 00:57 39.88589 -118.95148 10014 ft 167 kts 37°
2026-04-24 00:57 39.90571 -118.93811 10018 ft 164 kts 352°
2026-04-24 00:58 39.91537 -118.94566 10022 ft 168 kts 309°
2026-04-24 00:58 39.91847 -118.96019 10015 ft 173 kts 265°
2026-04-24 00:58 39.91281 -118.97388 10023 ft 177 kts 224°
2026-04-24 00:58 39.90300 -118.98375 10020 ft 178 kts 217°
2026-04-24 00:59 39.89327 -118.99331 10020 ft 177 kts 218°
2026-04-24 00:59 39.88354 -119.00323 10019 ft 177 kts 219°
2026-04-24 00:59 39.87380 -119.01316 10021 ft 177 kts 219°
2026-04-24 00:59 39.86406 -119.02310 10017 ft 178 kts 219°
2026-04-24 01:00 39.85431 -119.03305 10017 ft 178 kts 219°
2026-04-24 01:00 39.84468 -119.04286 10012 ft 178 kts 219°
2026-04-24 01:00 39.83494 -119.05279 10011 ft 178 kts 219°
2026-04-24 01:00 39.82520 -119.06271 10010 ft 178 kts 219°
2026-04-24 01:01 39.81544 -119.07267 10008 ft 178 kts 219°
2026-04-24 01:01 39.80568 -119.08260 10007 ft 178 kts 219°
2026-04-24 01:01 39.79595 -119.09251 10008 ft 177 kts 220°
2026-04-24 01:01 39.78627 -119.10241 10008 ft 176 kts 220°
2026-04-24 01:02 39.77667 -119.11214 10006 ft 174 kts 220°
2026-04-24 01:02 39.76721 -119.12169 10006 ft 174 kts 220°
2026-04-24 01:02 39.75766 -119.13147 10006 ft 175 kts 220°
2026-04-24 01:02 39.74803 -119.14124 10006 ft 176 kts 220°
2026-04-24 01:03 39.73838 -119.15103 9998 ft 176 kts 220°
2026-04-24 01:03 39.72872 -119.16081 10000 ft 175 kts 219°
2026-04-24 01:03 39.71908 -119.17061 10001 ft 177 kts 220°
2026-04-24 01:03 39.70934 -119.18054 10001 ft 178 kts 220°
2026-04-24 01:04 39.69954 -119.19046 10001 ft 178 kts 220°
2026-04-24 01:04 39.68976 -119.20036 10002 ft 178 kts 220°
2026-04-24 01:04 39.68012 -119.21015 10002 ft 178 kts 220°
2026-04-24 01:04 39.67036 -119.22005 10003 ft 178 kts 220°
2026-04-24 01:05 39.66056 -119.22995 10001 ft 178 kts 220°
2026-04-24 01:05 39.65076 -119.23987 10000 ft 178 kts 220°
2026-04-24 01:05 39.64102 -119.24973 9987 ft 177 kts 219°
2026-04-24 01:05 39.63131 -119.25958 9982 ft 177 kts 218°
2026-04-24 01:06 39.62160 -119.26937 9983 ft 177 kts 218°
2026-04-24 01:06 39.61186 -119.27921 9980 ft 177 kts 219°
2026-04-24 01:06 39.60211 -119.28906 9979 ft 177 kts 219°
2026-04-24 01:06 39.59240 -119.29888 9984 ft 177 kts 219°
2026-04-24 01:07 39.58277 -119.30861 9983 ft 177 kts 219°
2026-04-24 01:07 39.57303 -119.31843 9983 ft 177 kts 219°
2026-04-24 01:07 39.56332 -119.32823 9987 ft 177 kts 219°
2026-04-24 01:07 39.55354 -119.33809 9988 ft 178 kts 218°
2026-04-24 01:08 39.54376 -119.34796 9988 ft 178 kts 219°
2026-04-24 01:08 39.53403 -119.35776 9993 ft 177 kts 218°
2026-04-24 01:08 39.52431 -119.36757 9996 ft 177 kts 219°
2026-04-24 01:08 39.51455 -119.37737 9989 ft 177 kts 220°
2026-04-24 01:09 39.50498 -119.38705 9995 ft 177 kts 220°
2026-04-24 01:09 39.49526 -119.39684 9997 ft 177 kts 220°
2026-04-24 01:09 39.48553 -119.40660 9999 ft 177 kts 220°
2026-04-24 01:09 39.47578 -119.41638 10000 ft 177 kts 220°
2026-04-24 01:10 39.46607 -119.42616 9997 ft 177 kts 220°
2026-04-24 01:10 39.45635 -119.43594 10000 ft 177 kts 219°
2026-04-24 01:10 39.44663 -119.44570 9999 ft 177 kts 219°
2026-04-24 01:10 39.43690 -119.45548 10000 ft 177 kts 219°
2026-04-24 01:11 39.42717 -119.46524 10003 ft 177 kts 220°
2026-04-24 01:11 39.41750 -119.47497 10004 ft 176 kts 219°
2026-04-24 01:11 39.40784 -119.48469 10013 ft 175 kts 220°
2026-04-24 01:11 39.39813 -119.49442 10009 ft 177 kts 220°
2026-04-24 01:12 39.38840 -119.50415 10003 ft 176 kts 220°
2026-04-24 01:12 39.37887 -119.51357 10009 ft 174 kts 220°
2026-04-24 01:12 39.36933 -119.52327 10010 ft 174 kts 219°
2026-04-24 01:12 39.35975 -119.53287 10013 ft 174 kts 219°
2026-04-24 01:13 39.35019 -119.54248 10011 ft 174 kts 219°
2026-04-24 01:13 39.34061 -119.55214 10012 ft 175 kts 217°
2026-04-24 01:13 39.33415 -119.55849 10014 ft 176 kts 217°
2026-04-24 01:13 39.32121 -119.57136 10021 ft 178 kts 218°
2026-04-24 01:14 39.31144 -119.58114 10022 ft 178 kts 218°
2026-04-24 01:14 39.30160 -119.59098 10024 ft 178 kts 217°
2026-04-24 01:14 39.29509 -119.59750 10029 ft 179 kts 218°
2026-04-24 01:14 39.28521 -119.60737 10031 ft 179 kts 218°
2026-04-24 01:15 39.27537 -119.61716 10034 ft 178 kts 218°
2026-04-24 01:15 39.26553 -119.62700 10034 ft 179 kts 218°
2026-04-24 01:15 39.25567 -119.63685 10038 ft 180 kts 218°
2026-04-24 01:15 39.24576 -119.64672 10040 ft 180 kts 218°
2026-04-24 01:16 39.23588 -119.65654 10041 ft 178 kts 218°
2026-04-24 01:16 39.22618 -119.66623 10042 ft 178 kts 218°
2026-04-24 01:16 39.21633 -119.67603 10041 ft 179 kts 218°
2026-04-24 01:16 39.20646 -119.68587 10040 ft 179 kts 218°
2026-04-24 01:17 39.19659 -119.69568 10040 ft 179 kts 217°
2026-04-24 01:17 39.18672 -119.70551 10040 ft 179 kts 218°
2026-04-24 01:17 39.17687 -119.71530 10039 ft 179 kts 218°
2026-04-24 01:17 39.16702 -119.72509 10039 ft 179 kts 218°
2026-04-24 01:18 39.15714 -119.73492 10039 ft 179 kts 218°
2026-04-24 01:18 39.14727 -119.74473 10040 ft 179 kts 218°
2026-04-24 01:18 39.13742 -119.75451 10039 ft 178 kts 218°
2026-04-24 01:18 39.12758 -119.76427 10038 ft 179 kts 218°
2026-04-24 01:19 39.11774 -119.77404 10038 ft 179 kts 218°
2026-04-24 01:19 39.10800 -119.78370 10036 ft 179 kts 218°
2026-04-24 01:19 39.09813 -119.79349 10019 ft 179 kts 218°
2026-04-24 01:19 39.08833 -119.80320 10018 ft 176 kts 218°
2026-04-24 01:20 39.07894 -119.81253 10020 ft 177 kts 218°
2026-04-24 01:20 39.06914 -119.82223 10022 ft 178 kts 218°
2026-04-24 01:20 39.05931 -119.83202 10023 ft 180 kts 218°
2026-04-24 01:20 39.04937 -119.84187 10027 ft 181 kts 217°
2026-04-24 01:21 39.03931 -119.85183 10031 ft 181 kts 217°
2026-04-24 01:21 39.02925 -119.86186 10001 ft 184 kts 219°
2026-04-24 01:21 39.01946 -119.87238 9928 ft 183 kts 221°
2026-04-24 01:21 39.01045 -119.88337 9726 ft 174 kts 225°
2026-04-24 01:22 39.00206 -119.89412 9479 ft 165 kts 225°
2026-04-24 01:22 38.99402 -119.90437 9230 ft 157 kts 223°
2026-04-24 01:22 38.98653 -119.91349 9126 ft 149 kts 224°
2026-04-24 01:22 38.97907 -119.92231 8887 ft 141 kts 223°
2026-04-24 01:23 38.97181 -119.93058 8629 ft 137 kts 221°
2026-04-24 01:23 38.96503 -119.93856 8516 ft 129 kts 223°
2026-04-24 01:23 38.95844 -119.94663 8283 ft 132 kts 226°
2026-04-24 01:23 38.95276 -119.95506 8223 ft 113 kts 236°
2026-04-24 01:24 38.94829 -119.96334 8024 ft 113 kts 239°
2026-04-24 01:24 38.94385 -119.97198 7760 ft 118 kts 239°
2026-04-24 01:24 38.93898 -119.98035 7536 ft 117 kts 229°
2026-04-24 01:24 38.93318 -119.98700 7431 ft 102 kts 194°
2026-04-24 01:25 38.92565 -119.98618 7059 ft 118 kts 172°
2026-04-24 01:25 38.91808 -119.98804 6895 ft 111 kts 200°
2026-04-24 01:25 38.91070 -119.99051 6665 ft 111 kts 191°
2026-04-24 01:25 38.90309 -119.99251 6331 ft 108 kts 180°
2026-04-24 01:26 38.89615 -119.99470 6267 ft 95 kts 194°
2026-04-24 01:26 38.89069 -119.99629 6265 ft 62 kts 192°
2026-04-24 01:26 38.88723 -119.99732 6264 ft 42 kts 195°
2026-04-24 01:26 38.88444 -119.99815 6264 ft 43 kts 192°
2026-04-24 01:27 38.88260 -119.99906 6264 ft 16 kts 295°
2026-04-24 01:27 38.88356 -119.99942 6265 ft 20 kts 14°
2026-04-24 01:27 38.88512 -119.99896 6263 ft 27 kts 13°
2026-04-24 01:27 38.88708 -119.99837 6264 ft 31 kts 12°
2026-04-24 01:28 38.88921 -119.99775 6267 ft 27 kts 14°
2026-04-24 01:28 38.89086 -119.99725 6267 ft 26 kts 11°
2026-04-24 01:28 38.89236 -119.99708 6268 ft 14 kts 289°
2026-04-24 01:28 38.89284 -119.99755 6269 ft 11 kts 330°
2026-04-24 01:29 38.89272 -119.99804 6269 ft 2 kts 191°
2026-04-24 01:29 38.89271 -119.99804 6269 ft 0 kts 191°